Time,TemperatureF,DewpointF,PressureIn,WindDirection,WindDirectionDegrees,WindSpeedMPH,WindSpeedGustMPH,Humidity,HourlyPrecipIn,Conditions,Clouds,dailyrainin,SoftwareType,DateUTC
2013-08-01 00:01:00,86.9,56.0,27.35,NNW,337,2.0,6.0,36,0.00,,,0.00,Rainwise IP-100,2013-08-01 07:01:00,
2013-08-01 00:06:00,86.9,56.0,27.35,North,360,3.0,7.0,36,0.00,,,0.00,Rainwise IP-100,2013-08-01 07:06:00,
2013-08-01 00:11:00,86.9,56.0,27.35,NNE,22,1.0,7.0,36,0.00,,,0.00,Rainwise IP-100,2013-08-01 07:11:00,
2013-08-01 00:16:00,86.9,56.0,27.35,NNW,337,5.0,6.0,36,0.00,,,0.00,Rainwise IP-100,2013-08-01 07:16:00,
2013-08-01 00:21:00,87.0,56.0,27.35,ENE,67,4.0,6.0,36,0.00,,,0.00,Rainwise IP-100,2013-08-01 07:21:00,
2013-08-01 00:26:00,87.2,57.0,27.35,NE,45,4.0,6.0,36,0.00,,,0.00,Rainwise IP-100,2013-08-01 07:26:00,
2013-08-01 00:31:00,87.4,57.0,27.35,NNW,337,0.0,7.0,36,0.00,,,0.00,Rainwise IP-100,2013-08-01 07:31:00,
2013-08-01 00:36:00,87.4,57.0,27.35,NNW,337,6.0,8.0,36,0.00,,,0.00,Rainwise IP-100,2013-08-01 07:36:00,
2013-08-01 00:41:00,87.3,57.0,27.35,NE,45,1.0,9.0,36,0.00,,,0.00,Rainwise IP-100,2013-08-01 07:41:00,
2013-08-01 00:46:00,87.2,57.0,27.34,NNE,22,5.0,9.0,36,0.00,,,0.00,Rainwise IP-100,2013-08-01 07:46:00,
2013-08-01 00:51:00,87.1,56.0,27.34,North,360,1.0,8.0,36,0.00,,,0.00,Rainwise IP-100,2013-08-01 07:51:00,
2013-08-01 00:56:00,87.0,56.0,27.34,NNE,22,3.0,0.0,36,0.00,,,0.00,Rainwise IP-100,2013-08-01 07:56:00,
2013-08-01 01:01:00,86.9,56.0,27.34,North,360,2.0,0.0,36,0.00,,,0.00,Rainwise IP-100,2013-08-01 08:01:00,
2013-08-01 01:06:00,86.7,57.0,27.34,East,90,2.0,2.0,37,0.00,,,0.00,Rainwise IP-100,2013-08-01 08:06:00,
2013-08-01 01:11:00,86.5,57.0,27.33,ENE,67,4.0,6.0,37,0.00,,,0.00,Rainwise IP-100,2013-08-01 08:11:00,
2013-08-01 01:16:00,86.3,57.0,27.33,NNW,337,3.0,7.0,37,0.00,,,0.00,Rainwise IP-100,2013-08-01 08:16:00,
2013-08-01 01:21:00,86.2,57.0,27.33,NW,315,5.0,6.0,38,0.00,,,0.00,Rainwise IP-100,2013-08-01 08:21:00,
2013-08-01 01:26:00,86.1,57.0,27.33,NNE,22,1.0,0.0,38,0.00,,,0.00,Rainwise IP-100,2013-08-01 08:26:00,
2013-08-01 01:31:00,86.0,57.0,27.33,NNE,22,3.0,8.0,38,0.00,,,0.00,Rainwise IP-100,2013-08-01 08:31:00,
2013-08-01 01:36:00,86.0,57.0,27.33,NNE,22,2.0,8.0,38,0.00,,,0.00,Rainwise IP-100,2013-08-01 08:36:00,
2013-08-01 01:41:00,85.8,57.0,27.33,NE,45,3.0,7.0,38,0.00,,,0.00,Rainwise IP-100,2013-08-01 08:41:00,
2013-08-01 01:46:00,85.6,57.0,27.33,NNW,337,2.0,6.0,38,0.00,,,0.00,Rainwise IP-100,2013-08-01 08:46:00,
2013-08-01 01:50:00,85.5,57.0,27.33,NE,45,4.0,9.0,38,0.00,,,0.00,Rainwise IP-100,2013-08-01 08:50:00,
2013-08-01 01:55:00,85.4,57.0,27.33,NNE,22,7.0,7.0,38,0.00,,,0.00,Rainwise IP-100,2013-08-01 08:55:00,
2013-08-01 02:00:00,85.3,56.0,27.33,East,90,3.0,3.0,38,0.00,,,0.00,Rainwise IP-100,2013-08-01 09:00:00,
2013-08-01 02:05:00,85.2,56.0,27.33,NNW,337,4.0,4.0,38,0.00,,,0.00,Rainwise IP-100,2013-08-01 09:05:00,
2013-08-01 02:10:00,85.0,57.0,27.33,NNW,337,4.0,8.0,39,0.00,,,0.00,Rainwise IP-100,2013-08-01 09:10:00,
2013-08-01 02:15:00,84.9,57.0,27.33,SE,135,3.0,9.0,39,0.00,,,0.00,Rainwise IP-100,2013-08-01 09:15:00,
2013-08-01 02:20:00,84.8,57.0,27.33,ENE,67,0.0,9.0,39,0.00,,,0.00,Rainwise IP-100,2013-08-01 09:20:00,
2013-08-01 02:25:00,84.8,57.0,27.33,NNE,22,3.0,9.0,39,0.00,,,0.00,Rainwise IP-100,2013-08-01 09:25:00,
2013-08-01 02:30:00,84.7,57.0,27.32,NNE,22,2.0,2.0,39,0.00,,,0.00,Rainwise IP-100,2013-08-01 09:30:00,
2013-08-01 02:35:00,84.7,57.0,27.32,North,360,3.0,9.0,39,0.00,,,0.00,Rainwise IP-100,2013-08-01 09:35:00,
2013-08-01 02:40:00,84.7,57.0,27.33,North,360,4.0,7.0,39,0.00,,,0.00,Rainwise IP-100,2013-08-01 09:40:00,
2013-08-01 02:45:00,84.6,57.0,27.33,NNW,337,4.0,8.0,39,0.00,,,0.00,Rainwise IP-100,2013-08-01 09:45:00,
2013-08-01 02:50:00,84.5,57.0,27.33,NNE,22,2.0,8.0,39,0.00,,,0.00,Rainwise IP-100,2013-08-01 09:50:00,
2013-08-01 02:55:00,84.3,57.0,27.32,North,360,7.0,7.0,40,0.00,,,0.00,Rainwise IP-100,2013-08-01 09:55:00,
2013-08-01 03:00:00,84.2,57.0,27.33,NNW,337,2.0,7.0,40,0.00,,,0.00,Rainwise IP-100,2013-08-01 10:00:00,
2013-08-01 03:05:00,84.2,57.0,27.33,NNE,22,4.0,9.0,40,0.00,,,0.00,Rainwise IP-100,2013-08-01 10:05:00,
2013-08-01 03:10:00,84.2,57.0,27.33,ENE,67,2.0,7.0,40,0.00,,,0.00,Rainwise IP-100,2013-08-01 10:10:00,
2013-08-01 03:15:00,84.1,57.0,27.33,NNE,22,5.0,7.0,40,0.00,,,0.00,Rainwise IP-100,2013-08-01 10:15:00,
2013-08-01 03:20:00,83.9,57.0,27.33,North,360,6.0,6.0,41,0.00,,,0.00,Rainwise IP-100,2013-08-01 10:20:00,
2013-08-01 03:25:00,83.8,57.0,27.33,NNW,337,2.0,7.0,41,0.00,,,0.00,Rainwise IP-100,2013-08-01 10:25:00,
2013-08-01 03:30:00,83.7,57.0,27.33,NNW,337,3.0,4.0,41,0.00,,,0.00,Rainwise IP-100,2013-08-01 10:30:00,
2013-08-01 03:35:00,83.7,57.0,27.33,NNE,22,1.0,0.0,41,0.00,,,0.00,Rainwise IP-100,2013-08-01 10:35:00,
2013-08-01 03:40:00,83.8,57.0,27.33,NNE,22,4.0,6.0,41,0.00,,,0.00,Rainwise IP-100,2013-08-01 10:40:00,
2013-08-01 03:45:00,83.6,57.0,27.33,ENE,67,1.0,6.0,41,0.00,,,0.00,Rainwise IP-100,2013-08-01 10:45:00,
2013-08-01 03:50:00,83.5,57.0,27.33,NNW,337,4.0,7.0,41,0.00,,,0.00,Rainwise IP-100,2013-08-01 10:50:00,
2013-08-01 03:55:00,83.5,57.0,27.33,NNE,22,4.0,7.0,41,0.00,,,0.00,Rainwise IP-100,2013-08-01 10:55:00,
2013-08-01 04:00:00,83.4,57.0,27.34,NNW,337,0.0,6.0,41,0.00,,,0.00,Rainwise IP-100,2013-08-01 11:00:00,
2013-08-01 04:05:00,83.4,57.0,27.33,NNE,22,2.0,6.0,41,0.00,,,0.00,Rainwise IP-100,2013-08-01 11:05:00,
2013-08-01 04:10:00,83.4,56.0,27.33,North,360,4.0,6.0,40,0.00,,,0.00,Rainwise IP-100,2013-08-01 11:10:00,
2013-08-01 04:15:00,83.4,56.0,27.34,East,90,0.0,6.0,40,0.00,,,0.00,Rainwise IP-100,2013-08-01 11:15:00,
2013-08-01 04:20:00,83.4,56.0,27.34,ENE,67,2.0,5.0,40,0.00,,,0.00,Rainwise IP-100,2013-08-01 11:20:00,
2013-08-01 04:25:00,83.3,56.0,27.34,NNE,22,2.0,6.0,40,0.00,,,0.00,Rainwise IP-100,2013-08-01 11:25:00,
2013-08-01 04:30:00,83.3,56.0,27.33,ENE,67,7.0,0.0,40,0.00,,,0.00,Rainwise IP-100,2013-08-01 11:30:00,
2013-08-01 04:35:00,83.4,56.0,27.34,NNE,22,0.0,6.0,40,0.00,,,0.00,Rainwise IP-100,2013-08-01 11:35:00,
2013-08-01 04:40:00,83.4,56.0,27.34,NNE,22,3.0,5.0,40,0.00,,,0.00,Rainwise IP-100,2013-08-01 11:40:00,
2013-08-01 04:45:00,83.4,56.0,27.34,NNW,337,1.0,5.0,40,0.00,,,0.00,Rainwise IP-100,2013-08-01 11:45:00,
2013-08-01 04:50:00,83.4,56.0,27.33,NE,45,1.0,5.0,40,0.00,,,0.00,Rainwise IP-100,2013-08-01 11:50:00,
2013-08-01 04:55:00,83.3,56.0,27.34,NNE,22,2.0,5.0,40,0.00,,,0.00,Rainwise IP-100,2013-08-01 11:55:00,
2013-08-01 05:00:00,83.3,57.0,27.33,ENE,67,0.0,5.0,41,0.00,,,0.00,Rainwise IP-100,2013-08-01 12:00:00,
2013-08-01 05:05:00,83.3,57.0,27.34,NE,45,0.0,4.0,41,0.00,,,0.00,Rainwise IP-100,2013-08-01 12:05:00,
2013-08-01 05:10:00,83.2,57.0,27.34,NE,45,0.0,1.0,41,0.00,,,0.00,Rainwise IP-100,2013-08-01 12:10:00,
2013-08-01 05:15:00,83.0,57.0,27.34,NE,45,0.0,0.0,41,0.00,,,0.00,Rainwise IP-100,2013-08-01 12:15:00,
2013-08-01 05:20:00,82.5,56.0,27.35,ESE,112,0.0,0.0,41,0.00,,,0.00,Rainwise IP-100,2013-08-01 12:20:00,
2013-08-01 05:25:00,82.0,56.0,27.35,ESE,112,0.0,0.0,42,0.00,,,0.00,Rainwise IP-100,2013-08-01 12:25:00,
2013-08-01 05:30:00,81.6,56.0,27.35,ESE,112,0.0,0.0,42,0.00,,,0.00,Rainwise IP-100,2013-08-01 12:30:00,
2013-08-01 05:35:00,81.1,56.0,27.34,SE,135,0.0,1.0,43,0.00,,,0.00,Rainwise IP-100,2013-08-01 12:35:00,
2013-08-01 05:40:00,80.7,57.0,27.35,SE,135,0.0,1.0,44,0.00,,,0.00,Rainwise IP-100,2013-08-01 12:40:00,
2013-08-01 05:45:00,80.4,57.0,27.35,SE,135,0.0,1.0,45,0.00,,,0.00,Rainwise IP-100,2013-08-01 12:45:00,
2013-08-01 05:50:00,80.1,57.0,27.35,SE,135,0.0,0.0,46,0.00,,,0.00,Rainwise IP-100,2013-08-01 12:50:00,
2013-08-01 05:55:00,79.8,57.0,27.36,SE,135,0.0,0.0,46,0.00,,,0.00,Rainwise IP-100,2013-08-01 12:55:00,
2013-08-01 06:00:00,79.4,57.0,27.36,SE,135,0.0,0.0,47,0.00,,,0.00,Rainwise IP-100,2013-08-01 13:00:00,
2013-08-01 06:05:00,79.0,57.0,27.36,SE,135,0.0,0.0,47,0.00,,,0.00,Rainwise IP-100,2013-08-01 13:05:00,
2013-08-01 06:10:00,78.7,57.0,27.36,SE,135,0.0,0.0,48,0.00,,,0.00,Rainwise IP-100,2013-08-01 13:10:00,
2013-08-01 06:15:00,78.6,57.0,27.36,SE,135,0.0,0.0,48,0.00,,,0.00,Rainwise IP-100,2013-08-01 13:15:00,
2013-08-01 06:20:00,78.5,58.0,27.36,SE,135,0.0,0.0,49,0.00,,,0.00,Rainwise IP-100,2013-08-01 13:20:00,
2013-08-01 06:25:00,78.4,58.0,27.36,SE,135,0.0,0.0,50,0.00,,,0.00,Rainwise IP-100,2013-08-01 13:25:00,
2013-08-01 06:30:00,78.3,58.0,27.36,SE,135,0.0,0.0,50,0.00,,,0.00,Rainwise IP-100,2013-08-01 13:30:00,
2013-08-01 06:35:00,78.3,58.0,27.36,SE,135,0.0,0.0,50,0.00,,,0.00,Rainwise IP-100,2013-08-01 13:35:00,
2013-08-01 06:40:00,78.4,59.0,27.36,SE,135,0.0,0.0,51,0.00,,,0.00,Rainwise IP-100,2013-08-01 13:40:00,
2013-08-01 06:45:00,78.6,59.0,27.37,SE,135,0.0,0.0,51,0.00,,,0.00,Rainwise IP-100,2013-08-01 13:45:00,
2013-08-01 06:50:00,79.1,59.0,27.36,SE,135,0.0,0.0,50,0.00,,,0.00,Rainwise IP-100,2013-08-01 13:50:00,
2013-08-01 06:55:00,79.7,59.0,27.36,NE,45,0.0,2.0,50,0.00,,,0.00,Rainwise IP-100,2013-08-01 13:55:00,
2013-08-01 07:00:00,80.5,59.0,27.36,NW,315,0.0,3.0,48,0.00,,,0.00,Rainwise IP-100,2013-08-01 14:00:00,
2013-08-01 07:05:00,81.3,59.0,27.36,NNW,337,2.6,3.0,46,0.00,,,0.00,Rainwise IP-100,2013-08-01 14:05:00,
2013-08-01 07:10:00,81.9,59.0,27.37,NE,45,0.0,2.0,46,0.00,,,0.00,Rainwise IP-100,2013-08-01 14:10:00,
2013-08-01 07:15:00,82.5,59.0,27.36,NNE,22,0.0,2.0,45,0.00,,,0.00,Rainwise IP-100,2013-08-01 14:15:00,
2013-08-01 07:20:00,83.1,59.0,27.37,NNE,22,1.2,3.0,44,0.00,,,0.00,Rainwise IP-100,2013-08-01 14:20:00,
2013-08-01 07:25:00,83.6,59.0,27.37,NNE,22,0.0,3.0,43,0.00,,,0.00,Rainwise IP-100,2013-08-01 14:25:00,
2013-08-01 07:30:00,84.0,59.0,27.37,North,360,3.0,4.0,42,0.00,,,0.00,Rainwise IP-100,2013-08-01 14:30:00,
2013-08-01 07:35:00,84.3,59.0,27.37,NNE,22,2.6,4.0,42,0.00,,,0.00,Rainwise IP-100,2013-08-01 14:35:00,
2013-08-01 07:40:00,84.7,59.0,27.37,ENE,67,2.1,4.0,42,0.00,,,0.00,Rainwise IP-100,2013-08-01 14:40:00,
2013-08-01 07:45:00,84.9,59.0,27.36,NNE,22,0.0,3.0,42,0.00,,,0.00,Rainwise IP-100,2013-08-01 14:45:00,
2013-08-01 07:50:00,85.1,59.0,27.37,NNE,22,2.1,5.0,42,0.00,,,0.00,Rainwise IP-100,2013-08-01 14:50:00,
2013-08-01 07:55:00,85.5,59.0,27.36,NNE,22,1.2,3.0,41,0.00,,,0.00,Rainwise IP-100,2013-08-01 14:55:00,
2013-08-01 08:00:00,85.9,59.0,27.36,NNE,22,0.0,3.0,40,0.00,,,0.00,Rainwise IP-100,2013-08-01 15:00:00,
2013-08-01 08:05:00,86.3,59.0,27.36,North,360,2.6,2.6,40,0.00,,,0.00,Rainwise IP-100,2013-08-01 15:05:00,
2013-08-01 08:10:00,86.9,60.0,27.37,NNW,337,0.0,4.0,40,0.00,,,0.00,Rainwise IP-100,2013-08-01 15:10:00,
2013-08-01 08:15:00,87.4,59.0,27.37,NNW,337,0.0,1.0,38,0.00,,,0.00,Rainwise IP-100,2013-08-01 15:15:00,
2013-08-01 08:20:00,87.7,58.0,27.37,NNW,337,0.0,0.0,37,0.00,,,0.00,Rainwise IP-100,2013-08-01 15:20:00,
2013-08-01 08:25:00,87.8,57.0,27.37,NNW,337,0.0,0.0,36,0.00,,,0.00,Rainwise IP-100,2013-08-01 15:25:00,
2013-08-01 08:30:00,87.9,57.0,27.37,NNW,337,1.4,1.4,36,0.00,,,0.00,Rainwise IP-100,2013-08-01 15:30:00,
2013-08-01 08:35:00,88.0,57.0,27.37,NNW,337,0.0,2.0,35,0.00,,,0.00,Rainwise IP-100,2013-08-01 15:35:00,
2013-08-01 08:40:00,88.3,57.0,27.37,NNW,337,1.2,2.0,35,0.00,,,0.00,Rainwise IP-100,2013-08-01 15:40:00,
2013-08-01 08:45:00,88.6,57.0,27.37,NNW,337,1.2,1.2,35,0.00,,,0.00,Rainwise IP-100,2013-08-01 15:45:00,
2013-08-01 08:50:00,88.8,57.0,27.37,SSE,157,0.0,3.0,35,0.00,,,0.00,Rainwise IP-100,2013-08-01 15:50:00,
2013-08-01 08:55:00,89.0,57.0,27.37,WSW,247,1.9,2.0,35,0.00,,,0.00,Rainwise IP-100,2013-08-01 15:55:00,
2013-08-01 09:00:00,89.1,57.0,27.37,West,270,2.1,4.0,35,0.00,,,0.00,Rainwise IP-100,2013-08-01 16:00:00,
2013-08-01 09:05:00,89.1,57.0,27.37,West,270,0.0,2.0,35,0.00,,,0.00,Rainwise IP-100,2013-08-01 16:05:00,
2013-08-01 09:10:00,89.2,58.0,27.37,West,270,2.3,2.3,35,0.00,,,0.00,Rainwise IP-100,2013-08-01 16:10:00,
2013-08-01 09:15:00,89.6,58.0,27.37,WSW,247,0.0,2.0,35,0.00,,,0.00,Rainwise IP-100,2013-08-01 16:15:00,
2013-08-01 09:20:00,89.6,57.0,27.37,WNW,292,0.0,3.0,34,0.00,,,0.00,Rainwise IP-100,2013-08-01 16:20:00,
2013-08-01 09:25:00,89.6,58.0,27.37,WSW,247,0.0,1.0,35,0.00,,,0.00,Rainwise IP-100,2013-08-01 16:25:00,
2013-08-01 09:30:00,89.8,58.0,27.38,WSW,247,0.0,1.0,35,0.00,,,0.00,Rainwise IP-100,2013-08-01 16:30:00,
2013-08-01 09:35:00,89.8,57.0,27.38,WSW,247,0.0,3.0,34,0.00,,,0.00,Rainwise IP-100,2013-08-01 16:35:00,
2013-08-01 09:40:00,89.7,57.0,27.38,WSW,247,1.4,0.0,34,0.00,,,0.00,Rainwise IP-100,2013-08-01 16:40:00,
2013-08-01 09:45:00,89.7,57.0,27.38,WSW,247,0.0,2.0,34,0.00,,,0.00,Rainwise IP-100,2013-08-01 16:45:00,
2013-08-01 09:50:00,89.7,57.0,27.38,WSW,247,0.0,2.0,34,0.00,,,0.00,Rainwise IP-100,2013-08-01 16:50:00,
2013-08-01 09:55:00,89.7,57.0,27.37,WSW,247,0.0,0.0,34,0.00,,,0.00,Rainwise IP-100,2013-08-01 16:55:00,
2013-08-01 10:01:00,89.7,58.0,27.38,WNW,292,0.0,3.0,35,0.00,,,0.00,Rainwise IP-100,2013-08-01 17:01:00,
2013-08-01 10:06:00,89.6,58.0,27.38,WNW,292,0.0,2.0,35,0.00,,,0.00,Rainwise IP-100,2013-08-01 17:06:00,
2013-08-01 10:11:00,89.6,58.0,27.38,WSW,247,2.3,2.3,35,0.00,,,0.00,Rainwise IP-100,2013-08-01 17:11:00,
2013-08-01 10:16:00,89.6,58.0,27.38,WNW,292,3.3,4.0,35,0.00,,,0.00,Rainwise IP-100,2013-08-01 17:16:00,
2013-08-01 10:21:00,89.5,58.0,27.38,West,270,1.2,4.0,35,0.00,,,0.00,Rainwise IP-100,2013-08-01 17:21:00,
2013-08-01 10:26:00,89.5,58.0,27.38,NW,315,2.8,4.0,35,0.00,,,0.00,Rainwise IP-100,2013-08-01 17:26:00,
2013-08-01 10:31:00,89.6,58.0,27.38,NNW,337,0.0,4.0,35,0.00,,,0.00,Rainwise IP-100,2013-08-01 17:31:00,
2013-08-01 10:36:00,89.6,58.0,27.38,WNW,292,2.1,4.0,35,0.00,,,0.00,Rainwise IP-100,2013-08-01 17:36:00,
2013-08-01 10:41:00,89.7,58.0,27.38,WNW,292,4.7,4.7,35,0.00,,,0.00,Rainwise IP-100,2013-08-01 17:41:00,
2013-08-01 10:46:00,89.8,58.0,27.38,NNW,337,2.6,5.0,35,0.00,,,0.00,Rainwise IP-100,2013-08-01 17:46:00,
2013-08-01 10:51:00,89.9,59.0,27.39,NNW,337,3.0,4.0,35,0.00,,,0.00,Rainwise IP-100,2013-08-01 17:51:00,
2013-08-01 10:56:00,90.0,59.0,27.38,WNW,292,1.2,5.0,35,0.00,,,0.00,Rainwise IP-100,2013-08-01 17:56:00,
2013-08-01 11:01:00,90.0,59.0,27.38,WNW,292,0.0,2.0,35,0.00,,,0.00,Rainwise IP-100,2013-08-01 18:01:00,
2013-08-01 11:06:00,90.0,59.0,27.38,WNW,292,0.0,3.0,35,0.00,,,0.00,Rainwise IP-100,2013-08-01 18:06:00,
2013-08-01 11:11:00,90.3,59.0,27.39,WNW,292,4.2,4.2,35,0.00,,,0.00,Rainwise IP-100,2013-08-01 18:11:00,
2013-08-01 11:17:00,90.4,58.0,27.38,WNW,292,2.3,3.0,34,0.00,,,0.00,Rainwise IP-100,2013-08-01 18:17:00,
2013-08-01 11:22:00,90.3,58.0,27.38,WNW,292,1.4,2.0,34,0.00,,,0.00,Rainwise IP-100,2013-08-01 18:22:00,
2013-08-01 11:27:00,90.2,58.0,27.38,WNW,292,0.0,2.0,34,0.00,,,0.00,Rainwise IP-100,2013-08-01 18:27:00,
2013-08-01 11:32:00,90.0,59.0,27.38,ENE,67,0.0,2.0,35,0.00,,,0.00,Rainwise IP-100,2013-08-01 18:32:00,
2013-08-01 11:37:00,89.9,59.0,27.37,ENE,67,0.0,2.0,35,0.00,,,0.00,Rainwise IP-100,2013-08-01 18:37:00,
2013-08-01 11:42:00,90.2,58.0,27.38,ENE,67,0.0,0.0,34,0.00,,,0.00,Rainwise IP-100,2013-08-01 18:42:00,
2013-08-01 11:48:00,90.7,59.0,27.37,ENE,67,0.0,1.0,35,0.00,,,0.00,Rainwise IP-100,2013-08-01 18:48:00,
2013-08-01 11:53:00,91.1,59.0,27.37,ENE,67,0.0,3.0,34,0.00,,,0.00,Rainwise IP-100,2013-08-01 18:53:00,
2013-08-01 11:58:00,91.0,58.0,27.38,East,90,0.0,3.0,33,0.00,,,0.00,Rainwise IP-100,2013-08-01 18:58:00,
2013-08-01 12:03:00,90.9,58.0,27.37,East,90,0.0,2.0,33,0.00,,,0.00,Rainwise IP-100,2013-08-01 19:03:00,
2013-08-01 12:08:00,91.2,58.0,27.37,East,90,0.0,2.0,33,0.00,,,0.00,Rainwise IP-100,2013-08-01 19:08:00,
2013-08-01 12:13:00,91.5,58.0,27.38,ESE,112,0.0,4.0,33,0.00,,,0.00,Rainwise IP-100,2013-08-01 19:13:00,
2013-08-01 12:18:00,91.6,58.0,27.37,ESE,112,2.6,3.0,33,0.00,,,0.00,Rainwise IP-100,2013-08-01 19:18:00,
2013-08-01 12:23:00,91.5,57.0,27.37,ESE,112,0.0,5.0,32,0.00,,,0.00,Rainwise IP-100,2013-08-01 19:23:00,
2013-08-01 12:28:00,91.6,57.0,27.37,ENE,67,0.0,6.0,32,0.00,,,0.00,Rainwise IP-100,2013-08-01 19:28:00,
2013-08-01 12:33:00,91.9,57.0,27.37,ENE,67,1.6,4.0,32,0.00,,,0.00,Rainwise IP-100,2013-08-01 19:33:00,
2013-08-01 12:38:00,91.9,57.0,27.37,ESE,112,1.2,6.0,32,0.00,,,0.00,Rainwise IP-100,2013-08-01 19:38:00,
2013-08-01 12:43:00,92.0,57.0,27.37,ESE,112,2.3,4.0,31,0.00,,,0.00,Rainwise IP-100,2013-08-01 19:43:00,
2013-08-01 12:48:00,92.0,57.0,27.37,ESE,112,3.0,3.0,31,0.00,,,0.00,Rainwise IP-100,2013-08-01 19:48:00,
2013-08-01 12:53:00,92.0,57.0,27.37,ESE,112,0.0,4.0,31,0.00,,,0.00,Rainwise IP-100,2013-08-01 19:53:00,
2013-08-01 12:58:00,92.1,57.0,27.37,East,90,0.0,4.0,31,0.00,,,0.00,Rainwise IP-100,2013-08-01 19:58:00,
2013-08-01 13:03:00,92.2,57.0,27.37,ESE,112,2.1,2.1,31,0.00,,,0.00,Rainwise IP-100,2013-08-01 20:03:00,
2013-08-01 13:08:00,92.2,57.0,27.36,SE,135,1.2,4.0,31,0.00,,,0.00,Rainwise IP-100,2013-08-01 20:08:00,
2013-08-01 13:13:00,92.4,57.0,27.36,SSE,157,0.0,4.0,31,0.00,,,0.00,Rainwise IP-100,2013-08-01 20:13:00,
2013-08-01 13:18:00,92.8,57.0,27.36,ENE,67,1.2,0.0,31,0.00,,,0.00,Rainwise IP-100,2013-08-01 20:18:00,
2013-08-01 13:23:00,93.1,57.0,27.36,East,90,0.0,2.0,31,0.00,,,0.00,Rainwise IP-100,2013-08-01 20:23:00,
2013-08-01 13:28:00,93.3,57.0,27.37,ESE,112,1.2,3.0,30,0.00,,,0.00,Rainwise IP-100,2013-08-01 20:28:00,
2013-08-01 13:33:00,93.4,57.0,27.36,NNE,22,0.0,5.0,30,0.00,,,0.00,Rainwise IP-100,2013-08-01 20:33:00,
2013-08-01 13:38:00,93.6,57.0,27.36,ESE,112,0.0,4.0,30,0.00,,,0.00,Rainwise IP-100,2013-08-01 20:38:00,
2013-08-01 13:43:00,94.2,57.0,27.35,SE,135,0.0,3.0,29,0.00,,,0.00,Rainwise IP-100,2013-08-01 20:43:00,
2013-08-01 13:46:00,94.7,57.0,27.36,ESE,112,0.0,2.0,29,0.00,,,0.00,Rainwise IP-100,2013-08-01 20:46:00,
2013-08-01 13:51:00,95.2,57.0,27.35,East,90,0.0,4.0,29,0.00,,,0.00,Rainwise IP-100,2013-08-01 20:51:00,
2013-08-01 13:56:00,94.5,58.0,27.36,NNE,22,1.6,6.0,30,0.00,,,0.00,Rainwise IP-100,2013-08-01 20:56:00,
2013-08-01 14:01:00,94.3,59.0,27.36,NNE,22,1.9,5.0,31,0.00,,,0.00,Rainwise IP-100,2013-08-01 21:01:00,
2013-08-01 14:06:00,94.3,59.0,27.36,ENE,67,1.2,4.0,31,0.00,,,0.00,Rainwise IP-100,2013-08-01 21:06:00,
2013-08-01 14:11:00,94.1,59.0,27.35,North,360,2.6,3.0,31,0.00,,,0.00,Rainwise IP-100,2013-08-01 21:11:00,
2013-08-01 14:16:00,94.3,59.0,27.35,NNE,22,0.0,4.0,31,0.00,,,0.00,Rainwise IP-100,2013-08-01 21:16:00,
2013-08-01 14:21:00,94.5,59.0,27.34,North,360,1.2,4.0,31,0.00,,,0.00,Rainwise IP-100,2013-08-01 21:21:00,
2013-08-01 14:27:00,94.4,59.0,27.34,ENE,67,3.0,4.0,31,0.00,,,0.00,Rainwise IP-100,2013-08-01 21:27:00,
2013-08-01 14:32:00,94.1,59.0,27.34,NNW,337,1.2,4.0,31,0.00,,,0.00,Rainwise IP-100,2013-08-01 21:32:00,
2013-08-01 14:37:00,93.9,59.0,27.33,NNE,22,1.9,5.0,31,0.00,,,0.00,Rainwise IP-100,2013-08-01 21:37:00,
2013-08-01 14:42:00,94.0,59.0,27.33,North,360,0.0,4.0,31,0.00,,,0.00,Rainwise IP-100,2013-08-01 21:42:00,
2013-08-01 14:47:00,94.1,59.0,27.32,NW,315,2.8,5.0,31,0.00,,,0.00,Rainwise IP-100,2013-08-01 21:47:00,
2013-08-01 14:52:00,94.3,59.0,27.32,SSW,202,2.3,12.0,31,0.00,,,0.00,Rainwise IP-100,2013-08-01 21:52:00,
2013-08-01 14:57:00,94.4,58.0,27.32,SSW,202,1.4,5.0,30,0.00,,,0.00,Rainwise IP-100,2013-08-01 21:57:00,
2013-08-01 15:02:00,94.5,58.0,27.32,SW,225,1.2,2.0,30,0.00,,,0.00,Rainwise IP-100,2013-08-01 22:02:00,
2013-08-01 15:07:00,94.4,58.0,27.32,WSW,247,3.5,5.0,30,0.00,,,0.00,Rainwise IP-100,2013-08-01 22:07:00,
2013-08-01 15:12:00,93.7,57.0,27.32,WNW,292,2.6,8.0,30,0.00,,,0.00,Rainwise IP-100,2013-08-01 22:12:00,
2013-08-01 15:17:00,92.8,57.0,27.32,WNW,292,2.6,11.0,31,0.00,,,0.00,Rainwise IP-100,2013-08-01 22:17:00,
2013-08-01 15:22:00,92.2,58.0,27.32,WNW,292,2.3,10.0,32,0.00,,,0.00,Rainwise IP-100,2013-08-01 22:22:00,
2013-08-01 15:27:00,91.9,57.0,27.32,WNW,292,2.8,10.0,32,0.00,,,0.00,Rainwise IP-100,2013-08-01 22:27:00,
2013-08-01 15:32:00,92.0,57.0,27.32,WNW,292,2.6,5.0,31,0.00,,,0.00,Rainwise IP-100,2013-08-01 22:32:00,
2013-08-01 15:37:00,92.5,57.0,27.31,WNW,292,1.9,9.0,31,0.00,,,0.00,Rainwise IP-100,2013-08-01 22:37:00,
2013-08-01 15:42:00,92.6,57.0,27.32,WNW,292,2.3,9.0,31,0.00,,,0.00,Rainwise IP-100,2013-08-01 22:42:00,
2013-08-01 15:47:00,92.6,57.0,27.31,WNW,292,4.4,7.0,31,0.00,,,0.00,Rainwise IP-100,2013-08-01 22:47:00,
2013-08-01 15:52:00,92.5,57.0,27.31,WNW,292,2.8,6.0,31,0.00,,,0.00,Rainwise IP-100,2013-08-01 22:52:00,
2013-08-01 15:57:00,92.1,57.0,27.31,NNW,337,1.4,7.0,31,0.00,,,0.00,Rainwise IP-100,2013-08-01 22:57:00,
2013-08-01 16:02:00,91.5,57.0,27.31,WNW,292,4.0,8.0,32,0.00,,,0.00,Rainwise IP-100,2013-08-01 23:02:00,
2013-08-01 16:07:00,91.7,57.0,27.31,NW,315,3.0,6.0,32,0.00,,,0.00,Rainwise IP-100,2013-08-01 23:07:00,
2013-08-01 16:12:00,92.4,57.0,27.31,WNW,292,2.1,7.0,31,0.00,,,0.00,Rainwise IP-100,2013-08-01 23:12:00,
2013-08-01 16:17:00,92.7,57.0,27.32,West,270,2.3,8.0,31,0.00,,,0.00,Rainwise IP-100,2013-08-01 23:17:00,
2013-08-01 16:22:00,92.5,57.0,27.32,WNW,292,2.1,6.0,31,0.00,,,0.00,Rainwise IP-100,2013-08-01 23:22:00,
2013-08-01 16:27:00,91.9,57.0,27.32,WNW,292,1.6,7.0,31,0.00,,,0.00,Rainwise IP-100,2013-08-01 23:27:00,
2013-08-01 16:32:00,91.5,56.0,27.32,SSW,202,1.6,6.0,31,0.00,,,0.00,Rainwise IP-100,2013-08-01 23:32:00,
2013-08-01 16:37:00,91.6,56.0,27.32,WSW,247,1.9,4.0,31,0.00,,,0.00,Rainwise IP-100,2013-08-01 23:37:00,
2013-08-01 16:42:00,91.5,56.0,27.32,WSW,247,2.1,6.0,31,0.00,,,0.00,Rainwise IP-100,2013-08-01 23:42:00,
2013-08-01 16:47:00,90.9,56.0,27.31,West,270,1.4,8.0,31,0.00,,,0.00,Rainwise IP-100,2013-08-01 23:47:00,
2013-08-01 16:52:00,90.6,56.0,27.32,WSW,247,1.9,4.0,32,0.00,,,0.00,Rainwise IP-100,2013-08-01 23:52:00,
2013-08-01 16:57:00,90.6,57.0,27.31,WNW,292,4.0,4.0,33,0.00,,,0.00,Rainwise IP-100,2013-08-01 23:57:00,
2013-08-01 17:02:00,90.5,57.0,27.31,WNW,292,2.1,6.0,33,0.00,,,0.00,Rainwise IP-100,2013-08-02 00:02:00,
2013-08-01 17:07:00,90.4,57.0,27.31,WNW,292,4.7,6.0,33,0.00,,,0.00,Rainwise IP-100,2013-08-02 00:07:00,
2013-08-01 17:12:00,90.2,57.0,27.31,West,270,5.1,6.0,33,0.00,,,0.00,Rainwise IP-100,2013-08-02 00:12:00,
2013-08-01 17:17:00,90.2,58.0,27.31,WNW,292,0.0,5.0,34,0.00,,,0.00,Rainwise IP-100,2013-08-02 00:17:00,
2013-08-01 17:22:00,90.2,58.0,27.31,WNW,292,0.0,4.0,34,0.00,,,0.00,Rainwise IP-100,2013-08-02 00:22:00,
2013-08-01 17:27:00,90.2,58.0,27.30,NNW,337,1.2,6.0,34,0.00,,,0.00,Rainwise IP-100,2013-08-02 00:27:00,
2013-08-01 17:32:00,90.3,58.0,27.30,West,270,1.6,5.0,34,0.00,,,0.00,Rainwise IP-100,2013-08-02 00:32:00,
2013-08-01 17:37:00,90.4,58.0,27.30,WNW,292,0.0,3.0,34,0.00,,,0.00,Rainwise IP-100,2013-08-02 00:37:00,
2013-08-01 17:42:00,90.2,58.0,27.30,WNW,292,1.2,3.0,34,0.00,,,0.00,Rainwise IP-100,2013-08-02 00:42:00,
2013-08-01 17:47:00,89.9,59.0,27.30,NNW,337,3.0,6.0,35,0.00,,,0.00,Rainwise IP-100,2013-08-02 00:47:00,
2013-08-01 17:52:00,89.5,58.0,27.30,WNW,292,0.0,5.0,35,0.00,,,0.00,Rainwise IP-100,2013-08-02 00:52:00,
2013-08-01 17:57:00,89.3,59.0,27.30,WSW,247,1.6,3.0,36,0.00,,,0.00,Rainwise IP-100,2013-08-02 00:57:00,
2013-08-01 18:02:00,89.1,59.0,27.30,West,270,1.6,4.0,36,0.00,,,0.00,Rainwise IP-100,2013-08-02 01:02:00,
2013-08-01 18:07:00,88.9,59.0,27.30,SW,225,0.0,2.0,37,0.00,,,0.00,Rainwise IP-100,2013-08-02 01:07:00,
2013-08-01 18:12:00,88.6,59.0,27.30,WNW,292,0.0,2.0,37,0.00,,,0.00,Rainwise IP-100,2013-08-02 01:12:00,
2013-08-01 18:17:00,88.3,59.0,27.29,WNW,292,0.0,2.0,38,0.00,,,0.00,Rainwise IP-100,2013-08-02 01:17:00,
2013-08-01 18:22:00,87.9,59.0,27.29,WNW,292,0.0,3.0,38,0.00,,,0.00,Rainwise IP-100,2013-08-02 01:22:00,
2013-08-01 18:27:00,87.7,60.0,27.30,WNW,292,0.0,2.0,39,0.00,,,0.00,Rainwise IP-100,2013-08-02 01:27:00,
2013-08-01 18:32:00,87.5,59.0,27.30,WNW,292,0.0,1.0,39,0.00,,,0.00,Rainwise IP-100,2013-08-02 01:32:00,
2013-08-01 18:37:00,87.3,59.0,27.30,WNW,292,0.0,0.0,39,0.00,,,0.00,Rainwise IP-100,2013-08-02 01:37:00,
2013-08-01 18:42:00,87.2,59.0,27.30,WNW,292,0.0,0.0,39,0.00,,,0.00,Rainwise IP-100,2013-08-02 01:42:00,
2013-08-01 18:47:00,86.9,60.0,27.30,WNW,292,0.0,1.0,40,0.00,,,0.00,Rainwise IP-100,2013-08-02 01:47:00,
2013-08-01 18:52:00,86.7,59.0,27.31,WNW,292,0.0,0.0,40,0.00,,,0.00,Rainwise IP-100,2013-08-02 01:52:00,
2013-08-01 18:57:00,86.4,59.0,27.31,WNW,292,0.0,0.0,40,0.00,,,0.00,Rainwise IP-100,2013-08-02 01:57:00,
2013-08-01 19:02:00,86.1,59.0,27.31,WNW,292,0.0,0.0,40,0.00,,,0.00,Rainwise IP-100,2013-08-02 02:02:00,
2013-08-01 19:07:00,85.8,59.0,27.30,WNW,292,0.0,0.0,41,0.00,,,0.00,Rainwise IP-100,2013-08-02 02:07:00,
2013-08-01 19:12:00,85.5,59.0,27.31,WNW,292,0.0,0.0,41,0.00,,,0.00,Rainwise IP-100,2013-08-02 02:12:00,
2013-08-01 19:17:00,85.3,59.0,27.31,WNW,292,0.0,0.0,41,0.00,,,0.00,Rainwise IP-100,2013-08-02 02:17:00,
2013-08-01 19:22:00,84.8,59.0,27.31,WNW,292,0.0,0.0,42,0.00,,,0.00,Rainwise IP-100,2013-08-02 02:22:00,
2013-08-01 19:27:00,84.3,59.0,27.31,WNW,292,0.0,0.0,42,0.00,,,0.00,Rainwise IP-100,2013-08-02 02:27:00,
2013-08-01 19:32:00,83.9,59.0,27.31,WNW,292,0.0,0.0,43,0.00,,,0.00,Rainwise IP-100,2013-08-02 02:32:00,
2013-08-01 19:37:00,83.4,59.0,27.31,WNW,292,0.0,0.0,43,0.00,,,0.00,Rainwise IP-100,2013-08-02 02:37:00,
2013-08-01 19:42:00,82.9,59.0,27.31,WNW,292,0.0,0.0,44,0.00,,,0.00,Rainwise IP-100,2013-08-02 02:42:00,
2013-08-01 19:47:00,82.4,59.0,27.31,WNW,292,0.0,0.0,45,0.00,,,0.00,Rainwise IP-100,2013-08-02 02:47:00,
2013-08-01 19:52:00,81.9,59.0,27.31,WNW,292,0.0,0.0,45,0.00,,,0.00,Rainwise IP-100,2013-08-02 02:52:00,
2013-08-01 19:57:00,81.6,59.0,27.32,WNW,292,0.0,0.0,46,0.00,,,0.00,Rainwise IP-100,2013-08-02 02:57:00,
2013-08-01 20:02:00,81.5,59.0,27.32,WNW,292,0.0,0.0,47,0.00,,,0.00,Rainwise IP-100,2013-08-02 03:02:00,
2013-08-01 20:07:00,81.4,59.0,27.32,WNW,292,0.0,0.0,47,0.00,,,0.00,Rainwise IP-100,2013-08-02 03:07:00,
2013-08-01 20:12:00,81.2,59.0,27.31,WNW,292,0.0,0.0,47,0.00,,,0.00,Rainwise IP-100,2013-08-02 03:12:00,
2013-08-01 20:17:00,80.8,59.0,27.32,WNW,292,0.0,0.0,47,0.00,,,0.00,Rainwise IP-100,2013-08-02 03:17:00,
2013-08-01 20:22:00,80.4,59.0,27.32,WNW,292,0.0,0.0,48,0.00,,,0.00,Rainwise IP-100,2013-08-02 03:22:00,
2013-08-01 20:27:00,80.1,59.0,27.32,WNW,292,0.0,0.0,49,0.00,,,0.00,Rainwise IP-100,2013-08-02 03:27:00,
2013-08-01 20:32:00,79.8,59.0,27.32,WNW,292,0.0,0.0,49,0.00,,,0.00,Rainwise IP-100,2013-08-02 03:32:00,
2013-08-01 20:37:00,79.6,59.0,27.33,WNW,292,0.0,0.0,50,0.00,,,0.00,Rainwise IP-100,2013-08-02 03:37:00,
2013-08-01 20:42:00,79.5,59.0,27.32,WNW,292,0.0,0.0,50,0.00,,,0.00,Rainwise IP-100,2013-08-02 03:42:00,
2013-08-01 20:47:00,79.5,60.0,27.32,WNW,292,0.0,0.0,51,0.00,,,0.00,Rainwise IP-100,2013-08-02 03:47:00,
2013-08-01 20:52:00,79.4,60.0,27.33,WNW,292,0.0,0.0,51,0.00,,,0.00,Rainwise IP-100,2013-08-02 03:52:00,
2013-08-01 20:57:00,79.1,59.0,27.33,WNW,292,0.0,0.0,50,0.00,,,0.00,Rainwise IP-100,2013-08-02 03:57:00,
2013-08-01 21:01:00,78.9,59.0,27.33,WNW,292,0.0,0.0,50,0.00,,,0.00,Rainwise IP-100,2013-08-02 04:01:00,
2013-08-01 21:06:00,78.7,59.0,27.33,WNW,292,0.0,0.0,50,0.00,,,0.00,Rainwise IP-100,2013-08-02 04:06:00,
2013-08-01 21:11:00,78.3,59.0,27.33,WNW,292,0.0,0.0,51,0.00,,,0.00,Rainwise IP-100,2013-08-02 04:11:00,
2013-08-01 21:16:00,78.0,59.0,27.33,WNW,292,0.0,0.0,52,0.00,,,0.00,Rainwise IP-100,2013-08-02 04:16:00,
2013-08-01 21:21:00,77.7,59.0,27.33,WNW,292,0.0,0.0,53,0.00,,,0.00,Rainwise IP-100,2013-08-02 04:21:00,
2013-08-01 21:26:00,77.4,59.0,27.33,WNW,292,0.0,0.0,54,0.00,,,0.00,Rainwise IP-100,2013-08-02 04:26:00,
2013-08-01 21:31:00,77.2,59.0,27.33,WNW,292,0.0,0.0,54,0.00,,,0.00,Rainwise IP-100,2013-08-02 04:31:00,
2013-08-01 21:36:00,77.0,59.0,27.32,WNW,292,0.0,0.0,54,0.00,,,0.00,Rainwise IP-100,2013-08-02 04:36:00,
2013-08-01 21:41:00,77.0,59.0,27.32,WNW,292,0.0,0.0,54,0.00,,,0.00,Rainwise IP-100,2013-08-02 04:41:00,
2013-08-01 21:46:00,76.8,59.0,27.32,WNW,292,0.0,0.0,55,0.00,,,0.00,Rainwise IP-100,2013-08-02 04:46:00,
2013-08-01 21:51:00,76.6,59.0,27.32,WNW,292,0.0,0.0,55,0.00,,,0.00,Rainwise IP-100,2013-08-02 04:51:00,
2013-08-01 21:56:00,76.4,59.0,27.32,WNW,292,0.0,0.0,55,0.00,,,0.00,Rainwise IP-100,2013-08-02 04:56:00,
2013-08-01 22:01:00,76.2,59.0,27.32,WNW,292,0.0,0.0,55,0.00,,,0.00,Rainwise IP-100,2013-08-02 05:01:00,
2013-08-01 22:06:00,76.1,59.0,27.32,WNW,292,0.0,0.0,55,0.00,,,0.00,Rainwise IP-100,2013-08-02 05:06:00,
2013-08-01 22:11:00,76.0,59.0,27.33,WNW,292,0.0,0.0,55,0.00,,,0.00,Rainwise IP-100,2013-08-02 05:11:00,
2013-08-01 22:16:00,76.1,59.0,27.32,WNW,292,0.0,0.0,55,0.00,,,0.00,Rainwise IP-100,2013-08-02 05:16:00,
2013-08-01 22:21:00,76.1,59.0,27.32,WNW,292,0.0,0.0,55,0.00,,,0.00,Rainwise IP-100,2013-08-02 05:21:00,
2013-08-01 22:26:00,76.1,59.0,27.33,WNW,292,0.0,0.0,55,0.00,,,0.00,Rainwise IP-100,2013-08-02 05:26:00,
2013-08-01 22:31:00,76.0,59.0,27.33,WNW,292,0.0,0.0,56,0.00,,,0.00,Rainwise IP-100,2013-08-02 05:31:00,
2013-08-01 22:36:00,75.8,59.0,27.33,WNW,292,0.0,0.0,56,0.00,,,0.00,Rainwise IP-100,2013-08-02 05:36:00,
2013-08-01 22:41:00,75.5,59.0,27.33,WNW,292,0.0,0.0,57,0.00,,,0.00,Rainwise IP-100,2013-08-02 05:41:00,
2013-08-01 22:46:00,75.3,59.0,27.33,WNW,292,0.0,0.0,57,0.00,,,0.00,Rainwise IP-100,2013-08-02 05:46:00,
2013-08-01 22:51:00,75.1,59.0,27.33,WNW,292,0.0,0.0,58,0.00,,,0.00,Rainwise IP-100,2013-08-02 05:51:00,
2013-08-01 22:56:00,75.0,59.0,27.33,WNW,292,0.0,0.0,58,0.00,,,0.00,Rainwise IP-100,2013-08-02 05:56:00,
2013-08-01 23:01:00,74.8,59.0,27.33,WNW,292,0.0,0.0,58,0.00,,,0.00,Rainwise IP-100,2013-08-02 06:01:00,
2013-08-01 23:06:00,74.6,59.0,27.33,WNW,292,0.0,0.0,58,0.00,,,0.00,Rainwise IP-100,2013-08-02 06:06:00,
2013-08-01 23:11:00,74.3,59.0,27.33,WNW,292,0.0,0.0,59,0.00,,,0.00,Rainwise IP-100,2013-08-02 06:11:00,
2013-08-01 23:16:00,74.2,59.0,27.33,WNW,292,0.0,0.0,59,0.00,,,0.00,Rainwise IP-100,2013-08-02 06:16:00,
2013-08-01 23:21:00,74.3,60.0,27.32,WNW,292,0.0,0.0,60,0.00,,,0.00,Rainwise IP-100,2013-08-02 06:21:00,
2013-08-01 23:26:00,74.5,60.0,27.33,WNW,292,0.0,0.0,60,0.00,,,0.00,Rainwise IP-100,2013-08-02 06:26:00,
2013-08-01 23:31:00,74.8,60.0,27.33,WNW,292,0.0,0.0,60,0.00,,,0.00,Rainwise IP-100,2013-08-02 06:31:00,
2013-08-01 23:36:00,75.1,60.0,27.33,WNW,292,0.0,0.0,59,0.00,,,0.00,Rainwise IP-100,2013-08-02 06:36:00,
2013-08-01 23:41:00,75.4,60.0,27.33,WNW,292,0.0,0.0,59,0.00,,,0.00,Rainwise IP-100,2013-08-02 06:41:00,
2013-08-01 23:46:00,75.6,60.0,27.33,WNW,292,0.0,0.0,58,0.00,,,0.00,Rainwise IP-100,2013-08-02 06:46:00,
2013-08-01 23:51:00,75.6,60.0,27.32,WNW,292,0.0,0.0,58,0.00,,,0.00,Rainwise IP-100,2013-08-02 06:51:00,
2013-08-01 23:56:00,75.6,60.0,27.32,WNW,292,0.0,0.0,58,0.00,,,0.00,Rainwise IP-100,2013-08-02 06:56:00,